• In Czech Republic
  • List of Countries
  • For 7 days
  • Water Temperature
  • Satellite Maps
  • Weather Map
  • Weather Widgets
  • user-avatar
    Login

    Hourly Weather Świerzawa

    Today, 18 July, Wednesday

    Time Temperature Precipitation Wind Pressure Humidity
    00:00 +17°C° 0.1 mm 4 mps 729 mmHg 94%
    01:00 +17°C° 0 mm 4 mps 729 mmHg 94%
    02:00 +17°C° 0.2 mm 4 mps 729 mmHg 94%
    03:00 +16°C° 0.2 mm 5 mps 729 mmHg 93%
    04:00 +16°C° 0.2 mm 5 mps 729 mmHg 93%
    05:00 +16°C° 0.4 mm 6 mps 729 mmHg 92%
    06:00 +17°C° 0.4 mm 6 mps 729 mmHg 92%
    07:00 +17°C° 0.4 mm 6 mps 730 mmHg 91%
    08:00 +17°C° 0.6 mm 6 mps 730 mmHg 90%
    09:00 +17°C° 0.6 mm 7 mps 730 mmHg 89%
    10:00 +18°C° 0.6 mm 7 mps 730 mmHg 89%
    11:00 +19°C° 0.6 mm 6 mps 731 mmHg 88%
    12:00 +19°C° 0.6 mm 6 mps 731 mmHg 87%
    13:00 +19°C° 0.6 mm 6 mps 731 mmHg 86%
    14:00 +20°C° 0.4 mm 6 mps 731 mmHg 85%
    15:00 +20°C° 0.4 mm 6 mps 731 mmHg 83%
    16:00 +21°C° 0.4 mm 5 mps 732 mmHg 82%
    17:00 +20°C° 0.3 mm 4 mps 732 mmHg 83%
    18:00 +20°C° 0.3 mm 4 mps 732 mmHg 85%
    19:00 +19°C° 0.3 mm 3 mps 732 mmHg 86%
    20:00 +19°C° 0.2 mm 3 mps 732 mmHg 88%
    21:00 +18°C° 0.2 mm 3 mps 733 mmHg 90%
    22:00 +18°C° 0.2 mm 2 mps 733 mmHg 91%
    23:00 +18°C° 0.1 mm 3 mps 733 mmHg 92%

    Tomorrow, 19 July, Thursday

    Time Temperature Precipitation Wind Pressure Humidity
    00:00 +17°C° 0.1 mm 3 mps 733 mmHg 93%
    01:00 +17°C° 0.1 mm 3 mps 733 mmHg 94%
    02:00 +17°C° 0 mm 3 mps 733 mmHg 94%
    03:00 +16°C° 0 mm 3 mps 733 mmHg 94%
    04:00 +16°C° 0 mm 3 mps 733 mmHg 95%
    05:00 +17°C° 0 mm 4 mps 733 mmHg 92%
    06:00 +17°C° 0 mm 5 mps 733 mmHg 90%
    07:00 +17°C° 0 mm 5 mps 733 mmHg 87%
    08:00 +19°C° 0.1 mm 5 mps 734 mmHg 83%
    09:00 +20°C° 0.1 mm 5 mps 734 mmHg 80%
    10:00 +21°C° 0.1 mm 6 mps 734 mmHg 76%
    11:00 +21°C° 0.3 mm 5 mps 734 mmHg 75%
    12:00 +21°C° 0.3 mm 5 mps 734 mmHg 73%
    13:00 +22°C° 0.3 mm 5 mps 734 mmHg 72%
    14:00 +22°C° 0.2 mm 5 mps 734 mmHg 72%
    15:00 +22°C° 0.2 mm 5 mps 734 mmHg 71%
    16:00 +23°C° 0.2 mm 5 mps 734 mmHg 71%
    17:00 +22°C° 0 mm 4 mps 734 mmHg 73%
    18:00 +21°C° 0 mm 4 mps 734 mmHg 76%
    19:00 +21°C° 0 mm 3 mps 734 mmHg 78%
    20:00 +19°C° 0 mm 3 mps 734 mmHg 83%
    21:00 +18°C° 0 mm 3 mps 734 mmHg 88%
    22:00 +17°C° 0 mm 2 mps 734 mmHg 93%
    23:00 +16°C° 0 mm 2 mps 734 mmHg 93%

    Day after tomorrow, 20 July, Friday

    Time Temperature Precipitation Wind Pressure Humidity
    00:00 +16°C° 0 mm 2 mps 734 mmHg 94%
    01:00 +16°C° 0 mm 2 mps 734 mmHg 94%
    02:00 +16°C° 0 mm 2 mps 734 mmHg 94%
    03:00 +16°C° 0 mm 2 mps 734 mmHg 94%
    04:00 +15°C° 0 mm 2 mps 734 mmHg 94%
    05:00 +16°C° 0 mm 2 mps 734 mmHg 89%
    06:00 +17°C° 0 mm 3 mps 734 mmHg 84%
    07:00 +18°C° 0 mm 3 mps 734 mmHg 79%
    08:00 +20°C° 0 mm 3 mps 734 mmHg 72%
    09:00 +21°C° 0 mm 3 mps 734 mmHg 64%
    10:00 +24°C° 0 mm 3 mps 735 mmHg 57%
    11:00 +25°C° 0 mm 3 mps 734 mmHg 53%
    12:00 +26°C° 0 mm 3 mps 734 mmHg 50%
    13:00 +26°C° 0 mm 3 mps 734 mmHg 46%
    14:00 +27°C° 0 mm 3 mps 733 mmHg 45%
    15:00 +27°C° 0 mm 2 mps 733 mmHg 44%
    16:00 +27°C° 0 mm 2 mps 733 mmHg 42%
    17:00 +25°C° 0 mm 2 mps 733 mmHg 48%
    18:00 +24°C° 0 mm 2 mps 732 mmHg 54%
    19:00 +23°C° 0 mm 1 mps 732 mmHg 60%
    20:00 +21°C° 0 mm 1 mps 732 mmHg 63%
    21:00 +20°C° 0 mm 1 mps 732 mmHg 67%
    22:00 +18°C° 0 mm 1 mps 732 mmHg 70%
    23:00 +18°C° 0 mm 1 mps 732 mmHg 73%

    21 July, Saturday

    Time Temperature Precipitation Wind Pressure Humidity
    00:00 +16°C° 0 mm 1 mps 732 mmHg 75%
    01:00 +16°C° 0 mm 1 mps 732 mmHg 78%
    02:00 +16°C° 0 mm 1 mps 731 mmHg 79%
    03:00 +16°C° 0 mm 1 mps 731 mmHg 81%
    04:00 +16°C° 0 mm 1 mps 731 mmHg 82%
    05:00 +18°C° 0 mm 1 mps 731 mmHg 77%
    06:00 +20°C° 0 mm 1 mps 731 mmHg 73%
    07:00 +21°C° 0 mm 1 mps 731 mmHg 68%
    08:00 +23°C° 0 mm 1 mps 731 mmHg 63%
    09:00 +24°C° 0 mm 2 mps 731 mmHg 57%
    10:00 +26°C° 0 mm 2 mps 731 mmHg 51%
    11:00 +27°C° 0 mm 2 mps 731 mmHg 49%
    12:00 +27°C° 0 mm 2 mps 731 mmHg 46%
    13:00 +28°C° 0 mm 2 mps 731 mmHg 44%
    14:00 +28°C° 0 mm 1 mps 731 mmHg 46%
    15:00 +28°C° 0 mm 1 mps 730 mmHg 47%
    16:00 +27°C° 0 mm 1 mps 730 mmHg 48%
    17:00 +26°C° 0.1 mm 1 mps 730 mmHg 55%
    18:00 +25°C° 0.1 mm 2 mps 730 mmHg 61%
    19:00 +24°C° 0.1 mm 2 mps 730 mmHg 68%
    20:00 +21°C° 0 mm 2 mps 730 mmHg 71%
    21:00 +20°C° 0 mm 2 mps 730 mmHg 74%
    22:00 +19°C° 0 mm 2 mps 730 mmHg 77%
    23:00 +18°C° 0 mm 2 mps 730 mmHg 78%

    22 July, Sunday

    Time Temperature Precipitation Wind Pressure Humidity
    00:00 +19°C° 0 mm 1 mps 730 mmHg 79%
    01:00 +18°C° 0 mm 1 mps 730 mmHg 80%
    02:00 +18°C° 0 mm 1 mps 730 mmHg 81%
    03:00 +18°C° 0 mm 1 mps 730 mmHg 82%
    04:00 +16°C° 0 mm 1 mps 730 mmHg 82%
    05:00 +19°C° 0 mm 1 mps 730 mmHg 78%
    06:00 +20°C° 0 mm 1 mps 730 mmHg 74%
    07:00 +21°C° 0 mm 1 mps 730 mmHg 70%
    08:00 +22°C° 0 mm 1 mps 731 mmHg 67%
    09:00 +23°C° 0 mm 2 mps 731 mmHg 63%
    10:00 +24°C° 0 mm 2 mps 731 mmHg 59%
    11:00 +25°C° 0.1 mm 2 mps 731 mmHg 57%
    12:00 +26°C° 0.1 mm 3 mps 731 mmHg 54%
    13:00 +26°C° 0.1 mm 3 mps 731 mmHg 51%
    14:00 +26°C° 0.2 mm 3 mps 731 mmHg 50%
    15:00 +26°C° 0.2 mm 4 mps 731 mmHg 49%
    16:00 +26°C° 0.2 mm 4 mps 731 mmHg 48%
    17:00 +25°C° 0 mm 3 mps 731 mmHg 53%
    18:00 +24°C° 0 mm 3 mps 731 mmHg 58%
    19:00 +21°C° 0 mm 2 mps 731 mmHg 63%
    20:00 +20°C° 0 mm 2 mps 732 mmHg 66%
    21:00 +20°C° 0 mm 1 mps 732 mmHg 70%
    22:00 +18°C° 0 mm 1 mps 732 mmHg 73%
    23:00 +18°C° 0 mm 1 mps 732 mmHg 75%

    23 July, Monday

    Time Temperature Precipitation Wind Pressure Humidity
    00:00 +18°C° 0 mm 1 mps 733 mmHg 77%
    01:00 +16°C° 0 mm 2 mps 733 mmHg 79%
    02:00 +16°C° 0 mm 1 mps 733 mmHg 82%
    03:00 +15°C° 0 mm 1 mps 733 mmHg 84%
    04:00 +15°C° 0 mm 1 mps 733 mmHg 87%
    05:00 +18°C° 0 mm 1 mps 733 mmHg 82%
    06:00 +18°C° 0 mm 2 mps 734 mmHg 77%
    07:00 +20°C° 0 mm 2 mps 734 mmHg 72%
    08:00 +21°C° 0 mm 2 mps 734 mmHg 67%
    09:00 +23°C° 0 mm 2 mps 734 mmHg 62%
    10:00 +24°C° 0 mm 3 mps 735 mmHg 56%
    11:00 +25°C° 0.1 mm 3 mps 734 mmHg 54%
    12:00 +26°C° 0.1 mm 3 mps 734 mmHg 51%
    13:00 +26°C° 0.1 mm 3 mps 734 mmHg 49%
    14:00 +26°C° 0 mm 3 mps 734 mmHg 49%
    15:00 +26°C° 0 mm 3 mps 734 mmHg 49%
    16:00 +26°C° 0 mm 3 mps 734 mmHg 49%
    17:00 +25°C° 0 mm 3 mps 734 mmHg 54%
    18:00 +24°C° 0 mm 2 mps 734 mmHg 60%
    19:00 +23°C° 0 mm 2 mps 734 mmHg 65%
    20:00 +21°C° 0 mm 1 mps 734 mmHg 68%
    21:00 +20°C° 0 mm 1 mps 734 mmHg 72%
    22:00 +19°C° 0 mm 1 mps 734 mmHg 76%
    23:00 +18°C° 0 mm 1 mps 734 mmHg 79%
    Show more